sat.trackr.live / text

‹ back to catalog

KUIPER-00561

NORAD 69624 · 2026-140AJ

PAYLOAD ACTIVE UNKNOWN

§ Identity

Operator
Country
US
Launch date
2026-06-17
Launch site
FRGUI
Launch vehicle
Mass (kg)
RCS (m²)

External: N2YO · Heavens-Above · Gunter

§ Orbital elements

Epoch: 2026-09-20T03:10:16.508928Z

Period
97.30 min
Inclination
51.9027°
Eccentricity
0.0000629
Mean motion
14.79916968 rev/d
Perigee alt
629.1 km
Apogee alt
630.0 km
Semi-major
7,007.7 km
B*
2.4036e-4
RAAN
313.2992°
Arg perigee
90.4493°
Mean anomaly
269.6541°
Rev number
1,565

§ Raw data

KUIPER-005611 69624U 26140AJ  26263.13213552  .00001611  00000+0  24036-3 0  99972 69624  51.9027 313.2992 0000629  90.4493 269.6541 14.79916968 15658

JSON: /api/v1/satellites/69624 · /tle

For live sub-satellite position, see the globe view (requires WebGL).

§ Visibility from observer

Set your observer location to see the next 7 days of passes ≥ 10°. The values pass through the URL so the page stays shareable.

No JS? Fill the form by hand. The geolocation button needs JavaScript.